Regional Weather Roundup
Issued by NWS

Home | Current Version | Previous Version | Text Only | Print | Product List | Glossary On
Versions: 1 2 3 4 5 6 7 8 9 10 11 12 13 14 15 16 17 18 19 20 21 22 23 24 25 26 27 28 29 30 31 32 33 34 35 36 37 38 39 40 41 42 43 44 45 46 47 48 49 50
000
ASUS43 KFSD 281110
RWRSD

WEATHER ROUNDUP FOR SOUTH DAKOTA
NATIONAL WEATHER SERVICE SIOUX FALLS SD
600 AM CDT TUE MAR 28 2017

NOTE: "FAIR" INDICATES FEW OR NO CLOUDS BELOW 12,000 FEET WITH NO
SIGNIFICANT WEATHER AND/OR OBSTRUCTIONS TO VISIBILITY.


SDZ001>005-009-010-012>017-281200-
NORTHWEST AND NORTH CENTRAL SOUTH DAKOTA

CITY           SKY/WX    TMP DP  RH WIND       PRES   REMARKS
BUFFALO          N/A     39  33  79 SE3       29.92R
FAITH            N/A     42  35  76 MISG      29.97S
MOBRIDGE       CLOUDY    40  30  67 E9        30.00S
$$

SDZ012>016-024>037-041>051-057-063-072>074-281200-
SOUTHWEST AND SOUTH CENTRAL SOUTH DAKOTA

CITY           SKY/WX    TMP DP  RH WIND       PRES   REMARKS
RAPID CTY ARPT MOCLDY    41  33  73 N9        29.93S
PIERRE         CLOUDY    39  34  82 E7        29.99R
CUSTER         CLOUDY    39  34  82 E5        29.94R
ELLSWORTH AFB  CLOUDY    42  33  72 CALM      29.93S
PHILIP         CLOUDY    41  36  82 E12       29.96R
PINE RIDGE     RAIN      48  47  96 CALM      29.94R FOG
SPEARFISH      FAIR      39  36  87 SW5       29.94S
WINNER         LGT RAIN  46  41  82 SE9       29.99R
$$

SDZ004>011-016>023-039-040-281200-
NORTHEAST SOUTH DAKOTA

CITY           SKY/WX    TMP DP  RH WIND       PRES   REMARKS
ABERDEEN       CLOUDY    29  32 100 NE5       30.07S WCI  24
WATERTOWN      CLEAR     30  29  96 CALM      30.07R
BROOKINGS      CLOUDY    34  33  96 CALM      30.07R FOG
SISSETON         N/A     32  32 100 NW6       30.08R WCI  26
$$

SDZ017-020-022-023-036>040-048>070-281200-
SOUTHEAST SOUTH DAKOTA

CITY           SKY/WX    TMP DP  RH WIND       PRES   REMARKS
SIOUX FALLS    FOG       29  29 100 NE3       30.07R VSB 3/4
HURON          PTCLDY    33  33 100 E6        30.05S WCI  28
CHAMBERLAIN    CLOUDY    45  42  90 CALM      30.01R
MITCHELL       CLEAR     35  35 100 SE6       30.05S
YANKTON        CLOUDY    37  36  93 E7        30.05S
$$

ABBREVIATIONS USED IN REMARKS
   TC - TEMPERATURE IN CELSIUS
  WCI - WIND CHILL INDEX
   HX - HEAT INDEX
  VSB - VISIBILITY




USA.gov is the U.S. government's official web portal to all federal, state and local government web resources and services.